Location: Unspecified
(0.0000°N, 0.0000°E)
Time: 13:24:29
(UTC+01:00)

Iridium 75 - Visible Passes

Search period start: 26 January 2015 00:00
Search period end: 05 February 2015 00:00
Orbit: 776 x 779 km, 86.4° (Epoch: 25 January)

Date Brightness Start Highest point End Pass type
(mag) Time Alt. Az. Time Alt. Az. Time Alt. Az.
26 Jan 6.0 19:38:48 10° N 19:43:58 72° E 19:49:10 10° S visible
27 Jan 9.5 06:35:47 10° ESE 06:36:52 11° E 06:38:26 10° ENE visible
27 Jan 9.0 20:48:20 10° WNW 20:51:08 14° W 20:53:34 10° WSW visible
28 Jan 8.0 20:12:56 10° NNW 20:17:32 31° W 20:22:03 10° SSW visible
29 Jan 6.4 19:38:52 10° N 19:44:02 70° W 19:49:14 10° S visible
30 Jan 8.9 06:33:38 10° SE 06:37:02 18° E 06:40:42 10° NE visible
31 Jan 8.8 20:13:55 10° NW 20:17:40 19° W 20:21:13 10° SW visible
01 Feb 7.5 19:39:13 10° NNW 19:44:07 42° W 19:49:01 10° SSW visible
02 Feb 8.2 06:32:43 10° SSE 06:37:10 30° E 06:41:42 10° NNE visible
03 Feb 9.1 06:01:22 10° ESE 06:03:35 13° E 06:06:11 10° ENE visible
03 Feb 9.3 20:15:55 10° WNW 20:17:51 11° W 20:19:19 10° WSW visible
04 Feb 8.5 19:39:52 10° NNW 19:44:14 26° W 19:48:29 10° SW visible
